• In Deutschland
  • Länderverzeichnis
  • Für 7 Tage
  • Wassertemperatur
  • Satellitenkarten
  • Wetterkarte
  • Widgets
  • user-avatar
    Anmelden

    Stündliche Wetter Rudolstadt

    Heute, 16 Dezember, Samstag

    Zeit Temperatur Niederschläge Wind Luftdruck Luftfeuchtigkeit
    00:00 +1°C° 0 mm 1 m/S 731 mmHg 95%
    01:00 +1°C° 0 mm 1 m/S 731 mmHg 95%
    02:00 +1°C° 0 mm 1 m/S 731 mmHg 95%
    03:00 +1°C° 0 mm 1 m/S 732 mmHg 95%
    04:00 0°C° 0 mm 1 m/S 732 mmHg 95%
    05:00 0°C° 0 mm 1 m/S 732 mmHg 95%
    06:00 0°C° 0 mm 1 m/S 732 mmHg 95%
    07:00 0°C° 0 mm 1 m/S 733 mmHg 95%
    08:00 -1°C° 0 mm 2 m/S 733 mmHg 93%
    09:00 -1°C° 0 mm 2 m/S 734 mmHg 92%
    10:00 +1°C° 0 mm 2 m/S 735 mmHg 91%
    11:00 +2°C° 0 mm 2 m/S 735 mmHg 90%
    12:00 +1°C° 0 mm 3 m/S 735 mmHg 88%
    13:00 +2°C° 0 mm 3 m/S 736 mmHg 87%
    14:00 +1°C° 0,1 mm 3 m/S 736 mmHg 88%
    15:00 +1°C° 0,1 mm 3 m/S 737 mmHg 88%
    16:00 +1°C° 0,1 mm 3 m/S 737 mmHg 88%
    17:00 +1°C° 0 mm 3 m/S 738 mmHg 89%
    18:00 -1°C° 0 mm 4 m/S 738 mmHg 90%
    19:00 -1°C° 0 mm 4 m/S 739 mmHg 91%
    20:00 -1°C° 0 mm 4 m/S 739 mmHg 91%
    21:00 -1°C° 0 mm 4 m/S 740 mmHg 92%
    22:00 -1°C° 0 mm 4 m/S 740 mmHg 92%
    23:00 -1°C° 0,1 mm 4 m/S 740 mmHg 92%

    Morgen, 17 Dezember, Sonntag

    Zeit Temperatur Niederschläge Wind Luftdruck Luftfeuchtigkeit
    00:00 -1°C° 0,1 mm 4 m/S 741 mmHg 92%
    01:00 -1°C° 0,1 mm 4 m/S 741 mmHg 93%
    02:00 -1°C° 0,1 mm 4 m/S 741 mmHg 92%
    03:00 -1°C° 0,1 mm 4 m/S 741 mmHg 92%
    04:00 -1°C° 0,1 mm 4 m/S 741 mmHg 91%
    05:00 -1°C° 0,1 mm 4 m/S 742 mmHg 91%
    06:00 -2°C° 0,1 mm 4 m/S 742 mmHg 92%
    07:00 -2°C° 0,1 mm 4 m/S 743 mmHg 92%
    08:00 -2°C° 0 mm 4 m/S 744 mmHg 91%
    09:00 -1°C° 0 mm 4 m/S 744 mmHg 90%
    10:00 -1°C° 0 mm 4 m/S 745 mmHg 90%
    11:00 -1°C° 0 mm 4 m/S 745 mmHg 89%
    12:00 0°C° 0 mm 4 m/S 745 mmHg 88%
    13:00 0°C° 0 mm 4 m/S 746 mmHg 86%
    14:00 0°C° 0,1 mm 4 m/S 746 mmHg 88%
    15:00 +1°C° 0,1 mm 3 m/S 746 mmHg 89%
    16:00 0°C° 0,1 mm 3 m/S 747 mmHg 90%
    17:00 0°C° 0 mm 3 m/S 747 mmHg 91%
    18:00 0°C° 0 mm 3 m/S 748 mmHg 92%
    19:00 -1°C° 0 mm 3 m/S 748 mmHg 93%
    20:00 -1°C° 0 mm 3 m/S 748 mmHg 93%
    21:00 -1°C° 0 mm 3 m/S 748 mmHg 93%
    22:00 -2°C° 0 mm 4 m/S 749 mmHg 92%
    23:00 -2°C° 0 mm 4 m/S 748 mmHg 92%

    übermorgen, 18 Dezember, Montag

    Zeit Temperatur Niederschläge Wind Luftdruck Luftfeuchtigkeit
    00:00 -1°C° 0 mm 4 m/S 748 mmHg 91%
    01:00 -1°C° 0 mm 4 m/S 748 mmHg 90%
    02:00 -1°C° 0,1 mm 5 m/S 747 mmHg 89%
    03:00 -1°C° 0,1 mm 5 m/S 746 mmHg 88%
    04:00 -2°C° 0,1 mm 6 m/S 745 mmHg 87%
    05:00 -2°C° 1 mm 6 m/S 745 mmHg 88%
    06:00 -2°C° 1 mm 6 m/S 744 mmHg 89%
    07:00 -2°C° 1 mm 7 m/S 743 mmHg 89%
    08:00 -1°C° 0,9 mm 6 m/S 743 mmHg 91%
    09:00 0°C° 0,9 mm 5 m/S 743 mmHg 92%
    10:00 0°C° 0,9 mm 5 m/S 743 mmHg 93%
    11:00 0°C° 0,4 mm 5 m/S 743 mmHg 93%
    12:00 +1°C° 0,4 mm 5 m/S 744 mmHg 93%
    13:00 +1°C° 0,4 mm 4 m/S 744 mmHg 93%
    14:00 +1°C° 0,1 mm 4 m/S 744 mmHg 94%
    15:00 +1°C° 0,1 mm 4 m/S 745 mmHg 94%
    16:00 +1°C° 0,1 mm 3 m/S 746 mmHg 94%
    17:00 +1°C° 0 mm 3 m/S 747 mmHg 95%
    18:00 +1°C° 0 mm 3 m/S 747 mmHg 95%
    19:00 +1°C° 0 mm 3 m/S 748 mmHg 96%
    20:00 +2°C° 0 mm 2 m/S 749 mmHg 96%
    21:00 +2°C° 0 mm 2 m/S 750 mmHg 97%
    22:00 +2°C° 0 mm 2 m/S 750 mmHg 97%
    23:00 +2°C° 0,1 mm 2 m/S 751 mmHg 97%

    19 Dezember, Dienstag

    Zeit Temperatur Niederschläge Wind Luftdruck Luftfeuchtigkeit
    00:00 +2°C° 0,1 mm 2 m/S 751 mmHg 97%
    01:00 +2°C° 0,1 mm 2 m/S 752 mmHg 97%
    02:00 +2°C° 0 mm 2 m/S 752 mmHg 97%
    03:00 +2°C° 0 mm 2 m/S 752 mmHg 97%
    04:00 +1°C° 0 mm 3 m/S 753 mmHg 96%
    05:00 +2°C° 0,1 mm 2 m/S 753 mmHg 96%
    06:00 +2°C° 0,1 mm 2 m/S 754 mmHg 96%
    07:00 +2°C° 0,1 mm 2 m/S 754 mmHg 96%
    08:00 +2°C° 0 mm 2 m/S 754 mmHg 95%
    09:00 +2°C° 0 mm 2 m/S 755 mmHg 95%
    10:00 +2°C° 0 mm 2 m/S 755 mmHg 94%
    11:00 +2°C° 0 mm 2 m/S 756 mmHg 94%
    12:00 +2°C° 0 mm 2 m/S 756 mmHg 93%
    13:00 +2°C° 0 mm 3 m/S 756 mmHg 93%
    14:00 +2°C° 0 mm 2 m/S 756 mmHg 94%
    15:00 +2°C° 0 mm 2 m/S 756 mmHg 94%
    16:00 +2°C° 0 mm 2 m/S 756 mmHg 95%
    17:00 +1°C° 0 mm 2 m/S 756 mmHg 95%
    18:00 +1°C° 0 mm 2 m/S 756 mmHg 95%
    19:00 +1°C° 0 mm 2 m/S 756 mmHg 96%
    20:00 +1°C° 0 mm 2 m/S 756 mmHg 96%
    21:00 +1°C° 0 mm 2 m/S 756 mmHg 95%
    22:00 +1°C° 0 mm 3 m/S 756 mmHg 95%
    23:00 +1°C° 0 mm 3 m/S 756 mmHg 95%

    20 Dezember, Mittwoch

    Zeit Temperatur Niederschläge Wind Luftdruck Luftfeuchtigkeit
    00:00 +1°C° 0 mm 3 m/S 756 mmHg 95%
    01:00 +1°C° 0 mm 3 m/S 756 mmHg 95%
    02:00 +1°C° 0 mm 3 m/S 755 mmHg 94%
    03:00 +1°C° 0 mm 3 m/S 755 mmHg 94%
    04:00 +1°C° 0 mm 3 m/S 755 mmHg 93%
    05:00 +1°C° 0,1 mm 3 m/S 755 mmHg 94%
    06:00 +2°C° 0,1 mm 3 m/S 755 mmHg 95%
    07:00 +2°C° 0,1 mm 3 m/S 754 mmHg 95%
    08:00 +2°C° 0,2 mm 3 m/S 755 mmHg 96%
    09:00 +2°C° 0,2 mm 3 m/S 755 mmHg 96%
    10:00 +3°C° 0,2 mm 3 m/S 755 mmHg 97%
    11:00 +3°C° 0,5 mm 3 m/S 755 mmHg 97%
    12:00 +3°C° 0,5 mm 3 m/S 755 mmHg 97%
    13:00 +3°C° 0,5 mm 3 m/S 754 mmHg 97%
    14:00 +3°C° 0,2 mm 3 m/S 754 mmHg 97%
    15:00 +4°C° 0,2 mm 3 m/S 754 mmHg 98%
    16:00 +5°C° 0,2 mm 2 m/S 754 mmHg 98%
    17:00 +4°C° 0,1 mm 3 m/S 755 mmHg 97%
    18:00 +4°C° 0,1 mm 3 m/S 755 mmHg 97%
    19:00 +4°C° 0,1 mm 3 m/S 755 mmHg 97%
    20:00 +4°C° 0,3 mm 3 m/S 755 mmHg 97%
    21:00 +5°C° 0,3 mm 3 m/S 755 mmHg 97%
    22:00 +5°C° 0,3 mm 3 m/S 755 mmHg 97%
    23:00 +5°C° 0,3 mm 3 m/S 755 mmHg 97%

    21 Dezember, Donnerstag

    Zeit Temperatur Niederschläge Wind Luftdruck Luftfeuchtigkeit
    00:00 +5°C° 0,3 mm 3 m/S 755 mmHg 97%
    01:00 +5°C° 0,3 mm 3 m/S 754 mmHg 97%
    02:00 +5°C° 0,1 mm 3 m/S 754 mmHg 97%
    03:00 +5°C° 0,1 mm 3 m/S 754 mmHg 97%
    04:00 +5°C° 0,1 mm 3 m/S 754 mmHg 97%
    05:00 +5°C° 0,1 mm 3 m/S 754 mmHg 97%
    06:00 +5°C° 0,1 mm 3 m/S 754 mmHg 96%
    07:00 +6°C° 0,1 mm 4 m/S 754 mmHg 96%
    08:00 +6°C° 0,1 mm 4 m/S 754 mmHg 95%
    09:00 +6°C° 0,1 mm 5 m/S 754 mmHg 94%
    10:00 +6°C° 0,1 mm 5 m/S 753 mmHg 94%
    11:00 +5°C° 0 mm 6 m/S 753 mmHg 92%
    12:00 +5°C° 0 mm 6 m/S 753 mmHg 90%
    13:00 +5°C° 0 mm 6 m/S 752 mmHg 88%
    14:00 +5°C° 0 mm 6 m/S 752 mmHg 88%
    15:00 +5°C° 0 mm 6 m/S 752 mmHg 89%
    16:00 +5°C° 0 mm 6 m/S 751 mmHg 90%
    17:00 +5°C° 0,1 mm 6 m/S 751 mmHg 90%
    18:00 +5°C° 0,1 mm 6 m/S 751 mmHg 91%
    19:00 +6°C° 0,1 mm 5 m/S 751 mmHg 92%
    20:00 +6°C° 0,7 mm 5 m/S 750 mmHg 92%
    21:00 +6°C° 0,7 mm 5 m/S 750 mmHg 93%
    22:00 +6°C° 0,7 mm 5 m/S 749 mmHg 94%
    23:00 +6°C° 1,3 mm 5 m/S 749 mmHg 94%
    Mehr zeigen